Location: Prague
(50.0830°N, 14.4670°E)
Time: 17:12:57
(UTC+01:00)

STARLINK-1745 - Pass Details

Date: 22 September 2020
Orbit: 378 x 381 km, 53.0° (Epoch: 30 October)

Event Time Altitude Azimuth Distance (km) Brightness Sun altitude
Exits shadow 04:07:05 24° 63° (ENE) 824 5.2 -25.2°
Drops below altitude 10° 04:08:31 10° 68° (ENE) 1,392 6.7 -25.1°
Enters shadow 05:03:29 -71° 262° (W) 12,421 10.5 -17.3°
